• In Hungary
  • List of Countries
  • For 7 days
  • Water Temperature
  • Satellite Maps
  • Weather Map
  • News
  • Weather Widgets
  • user-avatar
    Login

    Hourly Weather Krasnyy Yar

    Today, 20 May, Sunday

    Time Temperature Precipitation Wind Pressure Humidity
    00:00 +10°C° 0 mm 3 mps 740 mmHg 96%
    01:00 +10°C° 0 mm 2 mps 740 mmHg 97%
    02:00 +10°C° 0 mm 2 mps 741 mmHg 97%
    03:00 +9°C° 0 mm 2 mps 741 mmHg 97%
    04:00 +9°C° 0 mm 3 mps 741 mmHg 96%
    05:00 +10°C° 0 mm 3 mps 742 mmHg 95%
    06:00 +10°C° 0 mm 3 mps 742 mmHg 94%
    07:00 +10°C° 0 mm 3 mps 742 mmHg 92%
    08:00 +12°C° 0 mm 2 mps 743 mmHg 89%
    09:00 +13°C° 0 mm 2 mps 743 mmHg 87%
    10:00 +14°C° 0 mm 2 mps 743 mmHg 86%
    11:00 +14°C° 0 mm 2 mps 743 mmHg 85%
    12:00 +15°C° 0 mm 2 mps 744 mmHg 84%
    13:00 +14°C° 0.1 mm 3 mps 744 mmHg 83%
    14:00 +14°C° 0.1 mm 3 mps 744 mmHg 83%
    15:00 +16°C° 0.1 mm 3 mps 744 mmHg 82%
    16:00 +15°C° 0 mm 4 mps 744 mmHg 83%
    17:00 +14°C° 0 mm 4 mps 744 mmHg 83%
    18:00 +14°C° 0 mm 5 mps 745 mmHg 83%
    19:00 +13°C° 0 mm 5 mps 745 mmHg 84%
    20:00 +12°C° 0 mm 5 mps 745 mmHg 85%
    21:00 +12°C° 0 mm 4 mps 746 mmHg 85%
    22:00 +12°C° 0 mm 5 mps 746 mmHg 82%
    23:00 +12°C° 0 mm 5 mps 746 mmHg 79%

    Tomorrow, 21 May, Monday

    Time Temperature Precipitation Wind Pressure Humidity
    00:00 +10°C° 0 mm 5 mps 746 mmHg 76%
    01:00 +10°C° 0 mm 5 mps 747 mmHg 77%
    02:00 +9°C° 0 mm 5 mps 747 mmHg 78%
    03:00 +9°C° 0 mm 5 mps 747 mmHg 79%
    04:00 +8°C° 0 mm 5 mps 748 mmHg 79%
    05:00 +8°C° 0 mm 5 mps 748 mmHg 80%
    06:00 +8°C° 0 mm 5 mps 748 mmHg 80%
    07:00 +9°C° 0 mm 6 mps 748 mmHg 77%
    08:00 +10°C° 0 mm 6 mps 749 mmHg 74%
    09:00 +11°C° 0 mm 7 mps 749 mmHg 72%
    10:00 +12°C° 0 mm 7 mps 749 mmHg 69%
    11:00 +12°C° 0 mm 7 mps 749 mmHg 67%
    12:00 +14°C° 0 mm 7 mps 749 mmHg 65%
    13:00 +15°C° 0 mm 7 mps 749 mmHg 64%
    14:00 +15°C° 0 mm 7 mps 749 mmHg 63%
    15:00 +16°C° 0 mm 7 mps 749 mmHg 61%
    16:00 +16°C° 0 mm 7 mps 749 mmHg 64%
    17:00 +16°C° 0 mm 6 mps 749 mmHg 66%
    18:00 +16°C° 0 mm 5 mps 749 mmHg 68%
    19:00 +15°C° 0 mm 5 mps 749 mmHg 70%
    20:00 +14°C° 0 mm 5 mps 749 mmHg 71%
    21:00 +13°C° 0 mm 5 mps 750 mmHg 73%
    22:00 +13°C° 0 mm 5 mps 750 mmHg 73%
    23:00 +13°C° 0 mm 5 mps 750 mmHg 73%

    Day after tomorrow, 22 May, Tuesday

    Time Temperature Precipitation Wind Pressure Humidity
    00:00 +13°C° 0 mm 6 mps 750 mmHg 72%
    01:00 +13°C° 0.1 mm 6 mps 750 mmHg 74%
    02:00 +13°C° 0.1 mm 6 mps 750 mmHg 75%
    03:00 +11°C° 0.1 mm 6 mps 750 mmHg 76%
    04:00 +11°C° 0 mm 6 mps 750 mmHg 77%
    05:00 +11°C° 0 mm 6 mps 750 mmHg 78%
    06:00 +10°C° 0 mm 6 mps 750 mmHg 80%
    07:00 +11°C° 0 mm 6 mps 750 mmHg 79%
    08:00 +14°C° 0 mm 6 mps 750 mmHg 78%
    09:00 +15°C° 0 mm 6 mps 750 mmHg 78%
    10:00 +16°C° 0 mm 6 mps 750 mmHg 77%
    11:00 +17°C° 0 mm 6 mps 750 mmHg 77%
    12:00 +19°C° 0 mm 6 mps 750 mmHg 76%
    13:00 +19°C° 0 mm 5 mps 750 mmHg 78%
    14:00 +19°C° 0 mm 5 mps 750 mmHg 79%
    15:00 +19°C° 0 mm 4 mps 750 mmHg 80%
    16:00 +19°C° 0 mm 4 mps 750 mmHg 82%
    17:00 +19°C° 0 mm 3 mps 749 mmHg 84%
    18:00 +19°C° 0 mm 2 mps 749 mmHg 86%
    19:00 +18°C° 0 mm 2 mps 749 mmHg 88%
    20:00 +18°C° 0 mm 2 mps 749 mmHg 90%
    21:00 +17°C° 0 mm 2 mps 750 mmHg 92%
    22:00 +17°C° 0.3 mm 2 mps 750 mmHg 93%
    23:00 +16°C° 0.3 mm 2 mps 750 mmHg 94%

    23 May, Wednesday

    Time Temperature Precipitation Wind Pressure Humidity
    00:00 +16°C° 0.3 mm 2 mps 749 mmHg 95%
    01:00 +15°C° 0.1 mm 2 mps 750 mmHg 95%
    02:00 +15°C° 0.1 mm 2 mps 750 mmHg 96%
    03:00 +15°C° 0.1 mm 1 mps 750 mmHg 96%
    04:00 +15°C° 0 mm 1 mps 750 mmHg 96%
    05:00 +15°C° 0 mm 1 mps 750 mmHg 95%
    06:00 +16°C° 0 mm 1 mps 750 mmHg 95%
    07:00 +18°C° 0 mm 1 mps 750 mmHg 91%
    08:00 +19°C° 0 mm 1 mps 750 mmHg 86%
    09:00 +21°C° 0 mm 1 mps 750 mmHg 82%
    10:00 +22°C° 0.1 mm 1 mps 750 mmHg 78%
    11:00 +23°C° 0.1 mm 1 mps 749 mmHg 75%
    12:00 +24°C° 0.1 mm 1 mps 749 mmHg 72%
    13:00 +24°C° 0.3 mm 2 mps 749 mmHg 69%
    14:00 +25°C° 0.3 mm 2 mps 749 mmHg 67%
    15:00 +26°C° 0.3 mm 2 mps 748 mmHg 65%
    16:00 +25°C° 0.6 mm 2 mps 748 mmHg 67%
    17:00 +25°C° 0.6 mm 2 mps 747 mmHg 69%
    18:00 +25°C° 0.6 mm 1 mps 747 mmHg 71%
    19:00 +23°C° 0.4 mm 1 mps 747 mmHg 76%
    20:00 +22°C° 0.4 mm 1 mps 747 mmHg 81%
    21:00 +20°C° 0.4 mm 1 mps 747 mmHg 86%
    22:00 +19°C° 0.2 mm 1 mps 747 mmHg 87%
    23:00 +19°C° 0.2 mm 1 mps 746 mmHg 89%

    24 May, Thursday

    Time Temperature Precipitation Wind Pressure Humidity
    00:00 +19°C° 0.2 mm 1 mps 746 mmHg 90%
    01:00 +18°C° 0.4 mm 1 mps 746 mmHg 91%
    02:00 +18°C° 0.4 mm 1 mps 746 mmHg 92%
    03:00 +18°C° 0.4 mm 1 mps 745 mmHg 93%
    04:00 +18°C° 0.3 mm 1 mps 745 mmHg 93%
    05:00 +19°C° 0.3 mm 1 mps 745 mmHg 93%
    06:00 +19°C° 0.3 mm 1 mps 745 mmHg 93%
    07:00 +20°C° 0.6 mm 1 mps 745 mmHg 89%
    08:00 +21°C° 0.6 mm 1 mps 745 mmHg 86%
    09:00 +22°C° 0.6 mm 1 mps 744 mmHg 82%
    10:00 +23°C° 1.2 mm 2 mps 744 mmHg 78%
    11:00 +23°C° 1.2 mm 2 mps 744 mmHg 74%
    12:00 +24°C° 1.2 mm 3 mps 744 mmHg 71%
    13:00 +24°C° 1 mm 3 mps 744 mmHg 70%
    14:00 +24°C° 1 mm 3 mps 744 mmHg 70%
    15:00 +24°C° 1 mm 3 mps 743 mmHg 70%
    16:00 +24°C° 0.3 mm 3 mps 743 mmHg 72%
    17:00 +24°C° 0.3 mm 3 mps 743 mmHg 74%
    18:00 +24°C° 0.3 mm 2 mps 743 mmHg 76%
    19:00 +21°C° 0.4 mm 2 mps 743 mmHg 80%
    20:00 +20°C° 0.4 mm 2 mps 743 mmHg 84%
    21:00 +18°C° 0.4 mm 2 mps 743 mmHg 87%
    22:00 +18°C° 1.1 mm 2 mps 743 mmHg 88%
    23:00 +17°C° 1.1 mm 2 mps 743 mmHg 90%

    25 May, Friday

    Time Temperature Precipitation Wind Pressure Humidity
    00:00 +17°C° 1.1 mm 2 mps 743 mmHg 91%
    01:00 +16°C° 0 mm 2 mps 743 mmHg 92%
    02:00 +16°C° 0 mm 1 mps 743 mmHg 92%
    03:00 +15°C° 0 mm 1 mps 743 mmHg 93%
    04:00 +16°C° 0.1 mm 2 mps 743 mmHg 93%
    05:00 +16°C° 0.1 mm 3 mps 744 mmHg 94%
    06:00 +16°C° 0.1 mm 3 mps 744 mmHg 94%
    07:00 +17°C° 0.1 mm 4 mps 744 mmHg 93%
    08:00 +16°C° 0.1 mm 5 mps 745 mmHg 91%
    09:00 +17°C° 0.1 mm 5 mps 745 mmHg 90%
    10:00 +17°C° 0.1 mm 6 mps 745 mmHg 89%
    11:00 +17°C° 0.1 mm 6 mps 746 mmHg 88%
    12:00 +17°C° 0.1 mm 7 mps 746 mmHg 87%
    13:00 +16°C° 0.1 mm 7 mps 747 mmHg 86%
    14:00 +16°C° 0.1 mm 7 mps 747 mmHg 86%
    15:00 +15°C° 0.1 mm 7 mps 748 mmHg 86%
    16:00 +14°C° 0 mm 7 mps 748 mmHg 85%
    17:00 +14°C° 0 mm 7 mps 749 mmHg 85%
    18:00 +12°C° 0 mm 7 mps 749 mmHg 85%
    19:00 +11°C° 0 mm 6 mps 750 mmHg 84%
    20:00 +11°C° 0 mm 6 mps 750 mmHg 84%
    21:00 +10°C° 0 mm 6 mps 751 mmHg 83%
    22:00 +10°C° 0 mm 6 mps 751 mmHg 84%
    23:00 +9°C° 0 mm 6 mps 751 mmHg 84%
    Show more